Tracking 18987 objects as of 25-Feb-2018
HD Live streaming from Space Station
objects crossing your sky now

FENGYUN 1C DEB

Track FENGYUN 1C DEB now!
10-day predictions


NORAD ID: 30032
Int'l Code: 1999-025NH
Perigee: 502.1 km
Apogee: 814.1 km
Inclination: 97.3 °
Period: 97.7 minutes
Semi major axis: 7029 km
RCS: 0.035 m2 (small)
Launch date: May 10, 1999
Source: People's Republic of China (PRC)
Launch site: Taiyaun Space Center, China (TSC)

Note: This is SATELLITE DEBRIS
aabbcc
Your satellite tracking list
Your tracking list is empty




NASA's NSSDC Master Catalog

Two Line Element Set (TLE):
1 30032U 99025NH  18055.62292787 +.00001115 +00000-0 +12236-3 0  9990
2 30032 097.3325 313.9279 0221909 139.9520 221.8292 14.73172309589785
Source of the keplerian elements: AFSPC